User: anonymous   Login
Location: Unspecified
(0.0000°N, 0.0000°E)
Time: 13:25:14
(UTC+01:00)
Language:

deb Ariane - Orbit

View from above orbital plane
View from above orbital plane
View from above satellite
View from above satellite

Ground track
Ground track

The orbit data is extracted from the following two-line orbital elements,

1 25668U 92060E   15029.43097243  .02917359 -22040-5  96280-3 0  9036
2 25668 007.4518 253.6927 3495710 176.6859 080.7357 08.67011324259962
Epoch (UTC): 29 January 2015 10:20:36
Eccentricity: 0.3495710
inclination: 7.4518°
perigee height: 132 km
apogee height: 7129 km
right ascension of ascending node: 253.6927°
argument of perigee: 176.6859°
revolutions per day: 8.67011324
mean anomaly at epoch: 80.7357°
orbit number at epoch: 25996

The dashed part of the orbit path shows where the satellite is in the earth's shadow,  

DLR